Temp
17 16 17 17 17 17 17 17 17 17 17 17 18 18 18 18 18 18 18 18 18 18 18 18 18 19 18 18 18 19 19 19 18 18 18 18 18 18 18 18 18 17 18
17 16 16 17 16 17 17 17 17 18 17 17 18 18 18 18 18 18 18 18 18 18 18 18 18 18 17 18 18 18 18 17 17 17 17 18 18 19 18 18 19 18 18
17 16 16 16 16 16 17 17 17 17 17 17 17 17 18 18 18 18 18 18 18 18 18 18 18 17 17 18 18 18 17 17 17 18 18 16 16 18 18 18 18 18 18
16 16 16 16 16 16 16 17 17 17 17 17 18 18 18 18 18 18 18 18 18 18 18 18 18 18 18 18 18 18 18 18 18 18 16 16 16 17 17 17 17 17 18
15 16 15 15 16 16 16 16 17 17 17 17 18 18 18 18 18 18 18 18 18 18 18 18 18 18 17 17 18 18 18 18 18 18 18 18 16 18 18 18 18 18 18
15 15 15 15 15 15 15 16 17 17 17 17 17 17 18 17 18 17 17 18 18 18 18 18 17 17 17 17 18 18 18 18 18 18 18 18 16 18 18 18 18 18 18
16 16 16 16 16 16 16 16 17 17 17 17 17 18 18 17 17 17 18 18 18 18 18 17 17 17 17 18 18 18 18 18 18 18 18 17 17 18 18 18 18 18 18
16 16 16 16 16 16 15 16 16 17 17 17 17 18 18 18 18 18 18 18 18 18 17 18 17 17 18 18 18 18 18 18 18 18 18 18 18 18 18 18 18 18 18
16 16 16 16 15 16 16 16 15 16 16 17 17 17 18 18 18 18 18 18 18 18 18 18 17 18 18 18 18 18 18 18 18 18 19 19 18 18 18 18 18 18 18
17 17 17 16 16 16 16 17 16 16 16 16 17 17 17 18 18 19 19 19 18 18 18 18 18 18 18 18 18 18 18 18 18 19 19 18 19 18 18 18 18 18 18
18 18 17 17 16 16 16 16 16 16 16 17 18 18 18 18 18 19 19 19 19 19 18 18 18 18 18 19 19 18 18 18 18 18 19 19 18 18 18 18 18 18 18
18 18 18 17 17 17 17 17 17 17 17 18 18 18 18 19 19 19 19 19 19 19 19 18 18 18 19 19 19 19 19 19 19 19 19 19 19 19 19 19 19 18 17
18 18 18 18 17 17 18 18 17 18 18 18 18 18 19 19 18 18 18 18 18 19 19 19 19 19 19 19 19 19 19 19 19 19 19 19 19 19 19 19 19 18 19
19 18 18 18 18 18 18 18 18 18 18 19 19 18 19 18 18 18 18 18 18 19 19 19 19 19 19 20 20 20 19 19 20 20 20 20 20 20 20 19 19 19 20
18 19 18 18 18 18 18 18 18 18 18 18 18 19 19 18 18 18 18 18 19 19 19 19 19 19 20 20 20 20 20 20 20 20 20 21 20 20 20 20 19 19 19
19 18 19 19 19 18 19 19 18 18 18 18 18 18 19 18 18 18 18 19 19 19 20 20 20 20 20 20 20 21 21 20 21 21 21 21 20 20 20 20 19 19 19
19 18 18 18 18 18 18 19 18 18 18 18 18 18 18 18 18 19 19 19 19 20 20 20 20 20 20 20 20 20 21 20 20 20 20 20 20 20 20 19 19 19 19
19 19 18 18 19 19 18 18 18 18 18 18 18 18 18 18 19 19 19 19 19 20 20 20 20 20 21 20 20 20 20 21 21 21 21 21 20 20 20 20 20 19 19
19 19 19 18 18 18 18 18 18 18 18 18 18 18 18 18 19 19 19 19 19 19 20 20 20 20 21 21 21 21 20 20 21 21 21 21 21 20 20 20 20 20 19
20 19 19 18 18 18 18 18 18 18 18 18 18 18 18 18 19 19 19 19 19 20 20 20 20 20 21 21 21 21 21 21 21 21 21 21 21 20 21 20 20 20 20
20 20 20 19 18 18 18 18 18 18 18 18 18 18 18 18 19 19 19 19 19 19 20 20 20 20 21 21 21 21 22 22 22 22 22 21 21 21 21 21 20 20 20
21 20 20 20 19 18 18 18 18 18 19 19 19 18 18 18 18 19 19 19 19 19 19 20 20 20 20 21 21 21 21 21 22 22 22 22 21 21 21 21 21 21 20
21 21 21 20 20 19 19 18 19 18 18 19 19 18 18 18 19 18 19 19 19 19 19 20 20 20 20 21 21 21 21 22 22 22 22 22 21 21 21 22 21 21 21
22 21 21 20 20 19 19 18 19 19 19 19 19 19 19 18 18 18 19 19 19 19 19 20 20 20 20 20 21 21 21 21 20 22 21 21 21 21 21 21 22 21 21
22 22 21 21 20 19 19 19 19 19 19 19 19 19 19 18 18 18 18 19 19 19 19 19 19 20 20 20 20 20 20 20 20 20 21 21 21 21 21 21 21 21 21
22 22 21 21 21 20 19 19 19 19 19 19 19 19 19 19 18 18 18 19 19 19 19 19 19 19 19 19 19 19 19 19 19 19 19 20 19 20 21 21 21 21 21
Height
1539 1541 1544 1546 1548 1550 1551 1553 1554 1556 1557 1557 1559 1560 1561 1562 1564 1564 1565 1566 1568 1569 1570 1570 1569 1570 1570 1570 1569 1570 1570 1571 1572 1572 1572 1572 1572 1573 1573 1574 1575 1577 1578
1539 1541 1543 1546 1548 1551 1552 1554 1555 1556 1559 1560 1561 1561 1563 1563 1565 1566 1567 1568 1568 1570 1570 1571 1571 1571 1572 1571 1572 1572 1573 1574 1573 1575 1574 1574 1575 1575 1576 1576 1577 1578 1579
1540 1542 1543 1546 1549 1552 1554 1555 1557 1558 1560 1561 1562 1563 1564 1565 1566 1567 1568 1568 1570 1571 1572 1573 1573 1574 1574 1574 1574 1575 1575 1576 1576 1577 1577 1579 1578 1578 1578 1579 1580 1580 1581
1541 1543 1544 1546 1549 1553 1555 1557 1559 1560 1561 1564 1564 1564 1565 1566 1568 1569 1569 1569 1571 1572 1574 1574 1575 1575 1576 1576 1577 1577 1578 1578 1579 1579 1580 1581 1582 1580 1581 1581 1582 1582 1583
1543 1544 1546 1548 1552 1554 1556 1558 1560 1561 1564 1564 1565 1566 1567 1568 1570 1571 1571 1571 1572 1574 1575 1576 1577 1578 1578 1579 1580 1581 1581 1581 1580 1580 1581 1581 1583 1582 1582 1583 1583 1583 1584
1545 1547 1548 1550 1553 1555 1559 1560 1561 1562 1564 1565 1567 1568 1569 1571 1571 1572 1572 1572 1574 1576 1577 1578 1579 1581 1581 1582 1583 1584 1583 1583 1582 1582 1583 1584 1585 1584 1584 1584 1584 1584 1585
1548 1550 1551 1552 1555 1557 1559 1561 1563 1564 1565 1567 1570 1570 1571 1573 1572 1573 1575 1574 1576 1578 1579 1580 1582 1582 1584 1586 1586 1586 1586 1585 1584 1585 1585 1585 1586 1586 1586 1586 1586 1586 1586
1550 1552 1554 1555 1558 1559 1561 1562 1565 1566 1567 1568 1571 1572 1572 1573 1574 1575 1576 1577 1578 1580 1581 1583 1584 1586 1587 1587 1588 1588 1587 1587 1586 1586 1586 1587 1587 1587 1588 1587 1587 1587 1587
1552 1554 1556 1558 1560 1561 1562 1564 1566 1568 1568 1569 1574 1573 1573 1574 1576 1576 1578 1579 1580 1582 1584 1586 1587 1588 1589 1589 1590 1590 1589 1588 1587 1587 1587 1587 1588 1588 1588 1588 1588 1588 1588
1554 1556 1558 1559 1561 1563 1563 1566 1568 1569 1569 1572 1573 1575 1574 1576 1577 1578 1579 1581 1582 1584 1586 1588 1589 1590 1591 1591 1592 1591 1590 1589 1589 1588 1588 1589 1589 1588 1588 1589 1590 1590 1589
1555 1557 1558 1561 1564 1565 1566 1568 1569 1568 1572 1574 1576 1576 1576 1578 1579 1580 1581 1583 1584 1586 1588 1589 1591 1592 1592 1593 1592 1592 1592 1591 1590 1590 1589 1590 1589 1589 1590 1591 1592 1592 1590
1555 1558 1559 1561 1564 1566 1568 1569 1571 1574 1576 1576 1576 1576 1578 1579 1581 1582 1584 1585 1587 1588 1590 1591 1592 1593 1593 1593 1593 1593 1593 1592 1591 1590 1590 1590 1590 1590 1590 1592 1593 1595 1592
1555 1558 1560 1561 1563 1566 1568 1569 1570 1573 1574 1576 1577 1578 1579 1581 1583 1585 1587 1588 1589 1590 1591 1592 1593 1594 1594 1594 1594 1593 1593 1593 1592 1591 1591 1590 1591 1591 1591 1593 1595 1595 1592
1556 1558 1560 1562 1563 1565 1566 1568 1570 1572 1574 1576 1578 1579 1581 1583 1585 1587 1588 1590 1591 1592 1592 1593 1594 1595 1595 1594 1594 1594 1594 1594 1593 1592 1592 1591 1591 1592 1592 1594 1593 1591 1589
1556 1558 1560 1562 1563 1565 1567 1569 1571 1573 1575 1577 1579 1580 1582 1584 1587 1588 1590 1591 1592 1593 1593 1594 1595 1596 1595 1595 1595 1595 1595 1594 1593 1593 1592 1592 1592 1593 1593 1593 1593 1591 1590
1556 1558 1560 1562 1564 1566 1567 1570 1572 1575 1577 1579 1580 1581 1583 1586 1588 1589 1591 1592 1593 1593 1594 1595 1596 1596 1596 1596 1595 1595 1595 1595 1594 1594 1594 1593 1594 1594 1594 1593 1592 1591 1589
1556 1558 1560 1562 1564 1566 1569 1571 1573 1576 1578 1580 1581 1583 1585 1587 1588 1590 1591 1593 1593 1594 1595 1596 1596 1596 1596 1596 1595 1595 1596 1596 1596 1595 1595 1594 1594 1594 1593 1591 1590 1589 1588
1555 1558 1560 1562 1564 1567 1570 1572 1574 1576 1579 1580 1582 1584 1586 1587 1589 1590 1592 1593 1594 1595 1595 1596 1596 1596 1596 1596 1596 1596 1596 1596 1596 1595 1595 1595 1595 1594 1592 1590 1589 1586 1584
1555 1557 1560 1562 1564 1567 1570 1572 1574 1577 1579 1581 1583 1585 1586 1587 1589 1590 1592 1593 1594 1595 1596 1596 1597 1597 1597 1597 1597 1597 1597 1597 1596 1596 1595 1595 1594 1593 1591 1589 1587 1584 1582
1553 1556 1559 1561 1564 1566 1569 1572 1574 1576 1579 1581 1583 1584 1586 1587 1589 1590 1591 1593 1594 1595 1596 1597 1597 1598 1598 1598 1598 1597 1597 1597 1595 1595 1595 1594 1593 1591 1589 1588 1586 1582 1579
1551 1554 1556 1559 1562 1565 1567 1570 1573 1575 1578 1581 1582 1583 1584 1586 1588 1589 1591 1592 1594 1595 1596 1597 1597 1598 1598 1598 1598 1596 1596 1595 1595 1594 1594 1592 1591 1590 1588 1587 1584 1582 1580
1548 1551 1554 1557 1560 1563 1566 1569 1572 1575 1577 1579 1581 1582 1583 1585 1586 1588 1590 1591 1593 1595 1595 1596 1597 1597 1598 1598 1598 1596 1596 1596 1593 1592 1592 1591 1590 1589 1587 1585 1584 1581 1580
1544 1548 1551 1554 1558 1561 1564 1567 1570 1572 1575 1577 1579 1580 1582 1583 1584 1586 1588 1590 1592 1593 1594 1595 1596 1596 1596 1597 1597 1597 1596 1595 1593 1592 1592 1591 1590 1589 1587 1585 1583 1581 1580
1540 1545 1549 1552 1555 1559 1562 1564 1567 1571 1573 1575 1577 1579 1580 1581 1583 1584 1586 1588 1590 1591 1592 1593 1594 1595 1595 1595 1595 1595 1595 1595 1595 1593 1591 1591 1590 1588 1587 1585 1583 1581 1580
1537 1541 1545 1549 1552 1556 1559 1562 1565 1568 1571 1573 1575 1577 1578 1579 1581 1583 1584 1586 1588 1589 1589 1590 1591 1592 1592 1593 1593 1593 1594 1593 1593 1592 1590 1590 1589 1588 1586 1584 1583 1581 1580
1533 1538 1541 1545 1549 1552 1556 1559 1562 1565 1569 1571 1572 1574 1576 1577 1579 1581 1582 1584 1586 1587 1588 1588 1589 1590 1591 1591 1592 1592 1592 1593 1593 1591 1590 1588 1588 1586 1585 1584 1582 1581 1580
Wind_Speed
14 15 20 15 13 11 11 12 11 10 11 12 12 11 10 9 6 6 8 8 10 10 8 9 9 9 9 9 9 10 12 13 14 13 13 13 13 13 12 12 12 10 8
12 13 18 18 15 10 10 10 11 11 10 10 10 10 9 8 7 8 9 10 10 11 12 13 11 11 12 12 12 12 13 12 13 13 12 13 12 11 11 10 10 9 9
13 14 17 21 17 13 10 10 10 9 10 10 10 11 11 9 9 9 10 11 13 13 13 14 13 14 13 13 14 14 14 12 12 12 11 10 10 10 10 9 9 8 8
12 13 14 22 19 14 12 11 11 10 11 10 10 10 10 10 9 10 12 12 12 13 15 15 15 15 16 16 15 14 14 13 12 10 10 10 9 9 9 8 8 7 6
13 13 14 17 17 20 14 13 13 13 12 9 9 10 11 11 11 11 12 12 13 13 15 17 17 16 15 15 16 16 15 14 12 12 11 10 9 8 8 6 5 4 4
17 16 15 15 13 15 14 15 16 16 13 11 9 10 13 12 13 13 13 14 14 14 16 15 14 13 13 14 14 13 13 13 13 11 11 9 8 8 8 6 5 4 4
19 18 18 18 17 15 13 13 14 16 14 12 10 12 14 14 14 14 14 14 14 14 15 14 14 14 15 14 13 13 13 13 11 10 9 7 6 6 6 6 5 4 3
20 20 19 18 17 14 11 11 19 19 13 14 10 11 12 13 14 13 13 13 14 15 15 13 12 13 12 12 12 11 13 13 13 10 7 7 6 5 3 3 3 3 3
18 19 18 18 14 14 13 16 23 16 15 15 11 13 13 12 12 12 13 13 15 15 13 12 12 12 12 11 10 10 10 11 11 10 7 6 6 5 3 3 3 3 3
18 16 16 17 14 11 9 11 13 12 15 12 10 12 13 13 12 12 14 15 15 15 13 11 10 10 9 9 9 9 9 9 8 8 6 6 6 5 4 4 5 4 5
16 15 15 13 10 10 11 13 12 10 12 12 11 12 13 12 13 14 15 15 14 14 12 10 9 7 7 6 6 6 8 9 6 6 5 5 5 5 5 6 7 7 5
15 15 15 11 11 11 11 12 13 12 13 13 12 13 13 14 15 17 17 17 15 12 10 8 6 5 4 3 4 6 8 9 4 4 5 6 6 7 7 8 7 10 14
13 14 14 12 10 10 12 10 10 11 11 12 12 13 14 16 18 18 17 16 13 12 10 8 5 3 2 2 3 4 6 6 3 4 7 8 8 8 7 7 7 8 12
14 13 14 13 12 10 7 8 9 11 13 14 13 14 15 17 16 15 13 11 10 8 6 4 3 0 2 2 2 3 5 4 3 5 7 8 8 6 5 5 4 6 12
14 15 14 13 12 11 10 10 12 14 13 14 14 14 15 16 14 11 9 8 7 9 8 5 4 4 4 4 3 2 3 4 6 7 7 6 5 2 1 0 2 4 8
14 15 15 13 12 11 10 12 14 14 11 11 13 14 15 15 12 9 6 6 6 7 5 4 3 2 2 0 1 3 5 6 6 6 5 4 2 1 3 5 6 8 9
12 15 16 14 13 12 13 16 14 13 10 11 12 13 14 12 11 8 6 5 5 5 4 2 3 4 3 2 2 5 6 4 3 2 2 0 3 5 7 9 11 12 11
15 16 16 16 15 15 16 15 14 12 12 13 12 10 9 8 10 7 6 3 4 3 1 2 4 5 3 0 3 5 4 5 4 4 4 4 6 9 11 13 14 15 14
17 18 18 17 17 17 16 15 14 13 14 14 11 8 9 9 11 7 7 3 3 0 2 3 4 5 2 1 1 1 2 2 4 6 6 7 9 11 12 14 16 18 16
17 17 19 19 19 18 17 16 16 16 16 14 10 10 8 8 9 7 8 5 3 3 4 4 4 4 3 4 5 6 6 6 8 9 10 11 12 13 13 15 15 16 11
19 20 21 21 23 22 21 19 19 19 16 14 12 10 8 9 7 6 10 7 6 6 6 6 6 5 5 4 6 9 10 11 13 13 13 14 13 13 15 11 11 12 10
23 21 23 22 24 24 21 23 21 18 16 15 14 12 12 10 12 11 10 8 8 8 7 8 7 8 8 6 8 9 7 9 10 10 11 9 6 10 9 6 9 9 8
25 25 24 22 22 24 22 21 22 19 17 18 17 15 12 9 10 11 11 10 8 10 9 9 9 7 9 10 10 8 6 5 12 6 5 5 7 9 10 9 9 10 5
25 26 25 25 23 23 23 23 23 21 16 16 18 13 12 12 9 9 11 11 9 8 8 9 10 10 9 9 9 11 10 9 5 7 8 6 8 9 9 11 10 10 6
24 27 26 25 25 24 24 24 25 24 19 15 17 15 15 14 13 11 12 12 9 8 8 8 6 6 8 8 8 8 8 8 7 6 8 8 10 10 11 9 9 10 9
26 28 28 27 26 26 24 25 25 25 20 19 17 13 16 14 16 14 14 14 11 9 7 6 8 5 5 6 7 6 6 5 5 6 9 11 12 11 10 10 9 11 11
Wind_Direction
166 172 172 171 154 137 128 123 130 137 151 149 149 143 148 152 142 114 114 114 114 117 117 110 108 106 115 111 103 97 95 95 99 101 104 106 102 104 106 108 103 101 105
164 168 176 178 175 159 133 132 127 135 140 145 143 143 144 140 131 124 113 114 110 107 106 109 100 105 107 106 105 101 100 98 98 91 91 97 101 103 104 101 105 105 98
166 170 174 178 174 164 140 129 117 130 134 126 129 134 135 126 121 121 118 109 112 104 104 106 105 107 109 109 105 104 100 99 92 86 82 93 90 102 108 109 107 106 109
154 164 171 180 180 172 146 135 121 119 114 124 127 126 119 116 118 124 123 117 113 108 106 105 112 110 109 101 100 96 91 86 83 80 81 92 86 86 87 92 97 101 107
142 140 148 159 176 176 142 141 136 121 114 120 120 116 108 109 114 124 127 124 115 110 114 113 115 113 107 104 95 88 84 85 84 80 82 87 90 87 86 85 85 96 107
132 127 122 132 136 148 156 157 149 132 112 105 110 114 107 105 112 118 119 119 116 116 120 116 117 108 105 101 94 86 85 86 82 84 85 87 89 86 89 90 99 92 85
124 126 123 119 121 132 153 157 160 143 116 115 117 116 114 112 110 112 118 116 119 121 121 123 115 104 105 96 90 85 82 79 78 82 85 87 79 72 79 78 84 77 68
125 125 124 123 125 121 116 155 140 135 112 114 114 121 123 120 121 126 122 122 123 128 130 121 112 105 99 97 88 85 78 69 64 71 74 74 68 65 58 65 79 68 66
133 131 130 129 123 125 116 92 154 132 113 109 130 125 120 122 127 128 120 118 126 132 126 113 110 107 107 97 82 72 73 67 65 69 79 84 81 78 76 83 81 69 58
128 137 141 139 138 141 125 109 110 109 116 122 127 123 120 114 121 122 119 121 123 128 128 121 116 113 110 95 82 70 60 50 54 65 74 83 89 99 99 95 85 73 62
151 144 141 145 148 147 143 139 138 142 146 142 133 127 122 122 122 117 118 114 117 124 127 124 122 115 104 93 76 59 32 20 21 51 69 89 101 108 104 98 94 84 64
163 163 169 169 162 150 144 151 156 160 159 149 136 130 125 125 121 115 110 109 110 116 122 123 123 112 103 84 44 26 21 20 44 96 107 114 118 120 120 113 107 80 28
166 170 167 168 163 160 153 159 159 149 143 144 138 135 130 127 121 116 109 107 105 107 114 114 118 118 90 52 6 4 13 23 66 124 128 127 127 130 127 122 111 114 12
172 175 174 172 172 171 164 152 149 150 146 149 146 141 138 135 129 123 116 114 114 125 131 141 145 93 328 324 21 25 29 33 107 131 130 130 134 143 142 136 148 180 12
181 177 177 176 177 176 168 163 154 146 143 148 150 150 148 145 138 131 124 116 115 162 170 155 117 83 70 66 78 107 85 111 134 136 131 132 137 139 189 246 237 270 292
185 184 178 180 181 179 171 166 159 156 150 155 155 158 157 153 146 141 122 108 111 165 160 138 73 51 3 124 114 112 137 140 133 126 121 111 89 15 336 328 317 307 311
190 190 184 179 183 176 170 166 166 164 164 161 162 159 160 159 159 155 139 114 110 154 145 96 33 5 1 184 193 171 164 157 153 137 143 300 324 319 315 311 308 304 301
195 193 192 185 183 180 177 177 176 178 171 167 166 164 172 178 178 170 164 135 126 120 123 25 14 17 40 266 139 161 187 214 249 261 285 321 334 333 326 320 314 303 301
209 200 197 192 187 185 186 188 195 187 175 173 174 189 200 197 199 196 190 181 173 337 322 336 349 10 0 257 211 223 279 271 279 294 309 313 320 322 321 327 326 319 312
213 210 207 203 190 187 191 190 192 188 182 183 187 186 201 199 199 212 209 220 241 271 291 297 320 343 2 262 279 289 290 285 286 293 301 306 312 313 320 326 323 338 333
214 212 204 206 198 195 197 199 199 194 193 195 201 199 210 200 213 224 221 236 253 267 272 260 297 298 327 341 321 306 295 296 294 294 304 306 310 314 323 323 336 356 356
219 212 207 206 206 206 209 209 206 203 206 216 220 225 227 228 230 236 233 243 263 268 265 253 287 273 287 294 300 309 314 318 319 315 324 320 332 342 341 332 341 1 10
220 216 209 209 208 209 211 212 213 217 218 219 223 226 228 232 236 233 226 235 259 260 268 259 265 284 272 278 288 291 309 312 325 345 11 22 2 5 12 2 345 353 10
223 218 216 212 214 215 214 215 211 214 220 226 223 230 232 230 228 229 224 230 263 261 256 250 259 272 272 271 283 284 284 289 307 312 319 313 347 357 346 349 353 343 332
219 218 217 218 219 219 217 220 220 224 229 241 225 227 236 233 234 232 232 233 253 255 250 235 252 266 267 261 270 286 278 290 299 303 309 323 336 342 343 338 344 349 332
221 218 221 221 223 224 223 224 225 228 230 234 226 233 229 236 231 241 240 237 236 244 242 239 240 250 268 273 286 297 293 290 289 297 304 315 316 323 332 345 345 338 340